sat.trackr.live / text

‹ back to catalog

STARLINK-30285

NORAD 57840 · 2023-141A

PAYLOAD ACTIVE UNKNOWN

§ Identity

Operator
Country
US
Launch date
2023-09-12
Launch site
AFWTR
Launch vehicle
Mass (kg)
RCS (m²)

Purposes: comms

External: N2YO · Heavens-Above · Gunter

§ Orbital elements

Epoch: 2026-09-20T22:42:39.801600Z

Period
94.01 min
Inclination
53.1600°
Eccentricity
0.0001077
Mean motion
15.31703399 rev/d
Perigee alt
470.0 km
Apogee alt
471.5 km
Semi-major
6,848.9 km
B*
3.3889e-5
RAAN
95.6826°
Arg perigee
83.2058°
Mean anomaly
276.9066°
Rev number
17,024

§ Raw data

STARLINK-302851 57840U 23141A   26263.94629400  .00000687  00000+0  33889-4 0  99932 57840  53.1600  95.6826 0001077  83.2058 276.9066 15.31703399170249

JSON: /api/v1/satellites/57840 · /tle

For live sub-satellite position, see the globe view (requires WebGL).

§ Visibility from observer

Set your observer location to see the next 7 days of passes ≥ 10°. The values pass through the URL so the page stays shareable.

No JS? Fill the form by hand. The geolocation button needs JavaScript.